DateTime,Index
1990090712,0.0
1990090718,0.0
1990090800,0.0
1990090806,0.0
1990090812,1225.0
1990090818,2025.0
1990090900,3025.0
1990090906,4225.0
1990090912,5625.0
1990090918,6400.0
1990091000,7225.0
1990091006,8100.0
1990091012,10000.0
1990091018,12100.0
1990091100,14400.0
1990091106,14400.0
1990091112,14400.0
1990091118,13225.0
1990091200,12100.0
1990091206,10000.0
1990091212,8100.0
1990091218,7225.0
1990091300,8100.0
1990091306,8100.0
1990091312,9025.0
1990091318,10000.0
1990091400,10000.0
1990091406,10000.0
1990091412,10000.0
1990091418,10000.0
1990091500,10000.0
1990091506,10000.0
1990091512,10000.0
1990091518,10000.0
1990091600,10000.0
1990091606,10000.0
1990091612,10000.0
1990091618,6400.0
1990091700,4900.0
1990091706,3600.0
1990091712,2500.0
1990091718,2500.0
1990091800,3600.0
1990091806,3600.0
1990091812,3025.0
1990091818,1600.0
1990091900,0.0
1990091906,0.0
1990091912,0.0
1990091918,0.0
1990092000,0.0
1990092006,0.0
1990092012,0.0
1990092018,0.0
1990092100,0.0
